TimeMDT,TemperatureF,Dew PointF,Humidity,Sea Level PressureIn,VisibilityMPH,Wind Direction,Wind SpeedMPH,Gust SpeedMPH,PrecipitationIn,Events,Conditions,WindDirDegrees,DateUTC
12:56 AM,57.0,52.0,83,29.92,10.0,South,8.1,-,N/A,,Clear,180,2013-08-19 06:56:00
1:56 AM,57.9,52.0,81,29.90,10.0,South,6.9,-,N/A,,Clear,170,2013-08-19 07:56:00
2:56 AM,57.0,53.1,87,29.89,10.0,South,6.9,-,N/A,,Clear,190,2013-08-19 08:56:00
3:56 AM,60.1,55.0,83,29.89,10.0,Variable,6.9,-,N/A,,Clear,0,2013-08-19 09:56:00
4:56 AM,59.0,54.0,83,29.88,10.0,Calm,Calm,-,N/A,,Clear,0,2013-08-19 10:56:00
5:56 AM,55.9,53.1,90,29.89,10.0,South,3.5,-,N/A,,Clear,190,2013-08-19 11:56:00
6:56 AM,59.0,55.9,90,29.89,10.0,South,4.6,-,N/A,,Clear,180,2013-08-19 12:56:00
7:56 AM,66.9,61.0,81,29.88,10.0,South,3.5,-,N/A,,Clear,190,2013-08-19 13:56:00
8:56 AM,78.1,64.9,64,29.88,10.0,South,6.9,-,N/A,,Clear,170,2013-08-19 14:56:00
9:56 AM,87.1,57.0,36,29.85,10.0,South,11.5,-,N/A,,Clear,170,2013-08-19 15:56:00
10:56 AM,89.1,55.9,32,29.84,10.0,South,9.2,-,N/A,,Clear,190,2013-08-19 16:56:00
11:56 AM,91.9,51.1,25,29.82,10.0,SSW,12.7,-,N/A,,Clear,200,2013-08-19 17:56:00
12:56 PM,93.9,52.0,24,29.81,10.0,SSW,13.8,24.2,N/A,,Clear,200,2013-08-19 18:56:00
1:56 PM,95.0,52.0,23,29.80,10.0,SSW,18.4,26.5,N/A,,Clear,210,2013-08-19 19:56:00
2:56 PM,96.1,55.9,26,29.78,10.0,West,15.0,25.3,N/A,,Clear,260,2013-08-19 20:56:00
3:56 PM,95.0,50.0,22,29.77,10.0,West,16.1,-,N/A,,Clear,260,2013-08-19 21:56:00
4:56 PM,93.9,51.1,23,29.76,10.0,West,12.7,-,N/A,,Clear,270,2013-08-19 22:56:00
5:56 PM,91.0,50.0,24,29.76,10.0,West,9.2,-,N/A,,Clear,270,2013-08-19 23:56:00
6:56 PM,82.9,59.0,44,29.77,10.0,West,5.8,-,N/A,,Clear,260,2013-08-20 00:56:00
7:56 PM,75.9,55.9,50,29.77,10.0,Calm,Calm,-,N/A,,Clear,0,2013-08-20 01:56:00
8:56 PM,75.0,54.0,48,29.78,10.0,WNW,3.5,-,N/A,,Clear,290,2013-08-20 02:56:00
9:56 PM,70.0,53.1,55,29.78,10.0,West,4.6,-,N/A,,Clear,270,2013-08-20 03:56:00
10:56 PM,64.0,53.1,67,29.79,10.0,SSW,5.8,-,N/A,,Clear,200,2013-08-20 04:56:00
11:56 PM,66.0,53.1,63,29.78,10.0,Calm,Calm,-,N/A,,Clear,0,2013-08-20 05:56:00